Location: Newark
(45.5000°N, 11.4167°E)
Time: 20:43:34
(UTC+00:00)

A-11 Canister half - Pass Details

Date: 23 August 2019
Orbit: 1514 x 1686 km, 47.2° (Epoch: 13 October)

Event Time Altitude Azimuth Distance (km) Brightness Sun altitude
Rises 17:38:59 0° 242° (WSW) 4,674 12.4 4.3°
Reaches altitude 10° 17:41:59 10° 241° (WSW) 3,708 11.9 3.8°
Maximum altitude 17:51:22 79° 157° (SSE) 1,603 9.2 2.2°
Drops below altitude 10° 18:01:08 10° 73° (ENE) 3,847 10.6 0.5°
Sets 18:04:18 0° 72° (ENE) 4,857 11.1 0.0°
